Location: *
(50.8512°N, 5.6907°E)
Time: 23:26:02
(UTC+00:00)

BREEZE M DEB (TANK) - Pass Details

Date: 09 April 2020
Orbit: 303 x 11878 km, 49.5° (Epoch: 02 June)

Event Time Altitude Azimuth Distance (km) Brightness Sun altitude
Rises 19:16:33 0° 197° (SSW) 2,264 5.4 -8.7°
Reaches altitude 10° 19:18:17 10° 178° (S) 1,687 4.5 -9.0°
Maximum altitude 19:21:06 22° 124° (ESE) 1,590 4.0 -9.4°
Drops below altitude 10° 19:26:40 10° 76° (ENE) 3,601 6.0 -10.2°
Sets 19:32:58 0° 66° (ENE) 6,203 7.3 -11.0°
